Starlink 3663

decayed
NORAD ID: 51976 Int'l Des: 2022-025 Owner: SPXS Country: US Constellation: starlink
LEOCIRCULAR
グループ

Starlink 3663について

説明を読み込み中...

高度履歴

Altitude vs Time

uPlot chart will show altitude changes over time

軌道要素

1 51976U 22025W 25352.21118895 .09375017 12538-4 17444-3 0 9999
2 51976 53.1852 293.8660 0002019 234.5958 125.4905 16.47510515210325
Epoch: Dec 18, 2025 • Age: 52 hours

現在のステータス

高度 45.5 km
速度 7.88 km/s
衛星直下点 -21.24°S, 44.59°E
打ち上げ日 Mar 9, 2022
運用期間 3.7 years
落下予定日 Dec 18, 2025
タイプ internet

技術仕様

分類 Payload
質量 297.00 kg
乾燥質量 275.00 kg
総質量 297.00 kg
長さ 0.20 m
直径 2.80 m
スパン 9.00 m
形状 Box + pan
製造者 SPXS
バスタイプ Starlink
フェーズステータス Unknown Transfer Status
所有者/国 SPXS/US

大規模コンステレーション

Loading constellations...